GEFSSGP_con_probscp_180.txt.gz
Probability
0 0 0 0 0 0 0 0 0 0 0 0 0 0 0 1 0 0 1 3 4 5 7 8 9 9 7 6 5 6 5 5 6 7 9 8 6 3 2 1 1 1 0 0 0 0 0 0 0
0 0 0 0 0 0 0 0 0 0 0 0 0 0 1 1 1 0 2 4 6 6 8 10 12 11 9 7 7 8 8 6 6 7 8 7 6 4 3 2 2 2 1 1 0 0 0 0 0
0 0 0 0 0 0 0 0 0 0 0 0 0 0 1 3 3 3 5 8 8 7 10 14 15 14 11 8 8 9 11 9 8 8 8 8 6 5 4 3 3 3 3 2 1 0 0 0 0
0 0 0 0 0 0 0 0 0 0 0 0 0 0 2 5 6 6 8 9 9 8 12 18 19 15 12 9 8 10 12 12 11 10 10 9 7 5 4 4 3 3 3 3 1 0 0 1 1
0 0 0 0 0 0 0 0 0 1 1 0 0 0 3 7 9 9 10 11 10 10 14 21 21 17 15 13 12 14 15 15 13 12 11 10 8 6 5 4 4 3 3 2 2 1 1 1 1
0 0 0 0 0 0 1 1 1 2 2 0 0 1 4 9 12 13 13 13 12 13 17 22 22 18 17 17 18 18 18 17 15 13 11 9 8 7 5 4 3 2 1 1 1 1 2 2 2
0 0 0 0 0 1 2 3 4 4 3 1 1 3 7 13 18 19 18 16 15 16 19 22 21 18 17 18 20 20 19 18 16 13 10 8 8 6 5 4 2 1 1 2 3 3 4 3 3
0 0 0 0 0 1 3 6 8 7 4 3 3 5 12 21 27 28 24 20 20 20 21 21 21 19 17 18 20 20 19 17 14 11 9 8 7 6 4 4 3 3 3 4 4 5 6 5 3
0 0 0 0 1 3 5 9 10 9 7 6 6 8 17 29 37 38 34 28 26 26 24 22 21 20 18 17 19 19 17 15 11 8 8 7 6 5 4 5 7 6 4 4 4 5 6 6 5
0 0 0 1 2 5 7 9 10 9 9 9 10 13 22 33 40 42 40 35 31 29 26 24 23 23 21 19 19 17 14 12 8 7 8 8 6 5 4 6 9 9 7 6 5 6 6 7 8
0 0 0 1 3 5 7 9 9 9 9 10 13 18 25 31 34 35 36 35 32 28 26 25 26 27 25 22 20 17 14 13 12 11 12 13 13 11 9 10 12 12 11 10 10 9 7 8 10
0 1 1 2 3 5 7 9 10 9 8 9 14 20 24 26 26 27 29 31 30 28 27 26 28 31 30 26 21 17 17 19 20 20 20 21 22 21 18 16 14 13 13 13 14 12 9 9 10
1 2 3 3 4 5 9 11 10 8 7 9 14 20 22 23 23 25 28 31 31 30 29 28 30 33 34 31 25 20 20 24 26 26 23 22 23 24 22 19 16 14 13 15 16 14 13 13 11
1 2 3 4 4 6 10 12 9 6 6 9 14 18 21 22 24 27 30 33 34 34 33 32 33 36 37 35 30 25 23 25 28 26 22 18 19 21 21 19 18 17 17 19 20 18 19 18 15
1 2 3 3 4 6 8 10 9 7 6 9 14 18 22 24 25 28 31 33 36 37 37 36 36 39 41 40 36 30 27 27 28 26 20 16 17 20 22 20 22 24 25 27 26 23 24 23 21
0 1 1 3 4 5 6 8 10 10 9 11 15 19 23 27 27 28 31 33 35 39 41 40 39 42 44 44 42 37 33 30 27 24 20 17 17 20 22 22 25 30 31 30 29 27 26 27 28
0 0 1 2 3 3 3 6 10 11 10 12 14 17 21 24 26 29 31 32 34 39 43 43 42 43 45 47 46 42 36 29 22 19 18 17 17 18 20 21 24 29 31 30 28 28 28 28 29
0 0 0 1 1 1 1 3 7 8 7 7 9 12 14 17 22 26 29 30 33 38 44 46 45 46 46 46 45 40 33 24 17 14 14 13 13 14 15 18 20 23 25 26 26 26 25 24 25
0 0 0 0 0 0 0 2 4 5 3 3 6 10 13 15 20 23 25 28 32 37 41 44 45 46 45 44 41 36 28 21 16 13 11 10 9 10 12 14 15 17 18 19 19 20 19 20 22
0 0 0 0 0 0 1 2 3 2 1 2 7 11 16 20 22 23 24 27 30 33 33 35 38 40 40 37 35 31 25 20 16 14 13 10 8 8 9 11 12 12 13 13 14 15 15 18 22
0 0 0 0 0 0 1 2 2 1 1 3 7 13 19 23 24 24 24 24 24 25 25 26 30 33 32 30 28 26 23 19 16 15 14 11 8 8 8 9 10 10 10 11 12 13 13 16 19
0 0 0 0 0 0 1 1 0 0 0 3 9 15 19 20 21 23 25 23 20 20 21 23 25 28 27 26 25 25 23 20 17 15 13 10 7 5 6 7 8 9 9 11 11 10 10 13 16
0 0 0 0 0 0 0 0 0 1 0 2 8 14 17 17 18 22 26 25 22 21 21 22 22 23 24 24 24 25 23 21 19 18 15 10 7 5 4 5 6 7 8 8 9 9 10 11 12
0 0 0 0 0 0 0 0 0 0 0 2 6 10 14 16 16 20 26 27 25 24 23 22 21 21 22 23 23 22 21 20 20 18 14 10 7 5 4 4 5 6 7 7 7 9 10 10 10
0 0 0 0 0 0 0 0 0 1 1 2 5 8 11 14 16 19 23 24 22 22 23 22 21 20 20 21 19 16 15 15 16 14 11 8 7 6 5 5 5 6 6 6 7 8 9 10 10
0 0 0 0 0 0 0 0 1 2 3 4 5 7 10 13 14 17 20 20 18 18 19 19 19 18 16 15 14 12 10 10 11 10 8 6 6 6 6 6 6 6 6 7 8 8 9 10 11
0 0 0 0 0 0 0 0 1 3 5 5 6 7 8 9 11 14 16 16 16 16 15 15 14 12 10 9 10 10 9 8 9 8 5 4 4 4 4 5 6 6 6 7 9 9 9 11 11
0 0 0 0 0 0 0 0 1 3 4 5 7 7 6 6 10 12 13 13 14 14 13 12 10 7 6 6 8 8 7 7 8 7 4 3 3 3 3 2 3 4 5 5 7 7 8 8 8
0 0 0 0 0 0 0 0 1 2 2 4 6 6 5 7 10 12 10 9 11 11 11 10 8 5 4 4 5 4 4 5 6 5 4 3 3 3 2 1 1 1 2 2 2 3 3 3 3
0 0 0 0 0 0 0 0 1 1 1 2 4 5 6 9 11 11 9 7 7 9 10 9 7 5 4 4 3 2 2 4 4 4 4 3 3 3 2 1 0 0 0 0 0 0 0 1 0

GEFSSGP_con_probscp_186.txt.gz
Probability
0 0 0 0 0 0 0 0 0 0 0 0 0 0 1 3 5 7 10 14 19 19 16 14 14 13 11 7 4 1 0 1 0 0 0 0 0 0 0 0 0 0 0 0 0 0 0 0 0
0 0 0 0 0 0 0 0 0 0 0 0 0 2 3 4 5 8 11 15 19 19 16 14 16 15 12 8 4 1 1 1 1 1 1 1 0 0 0 0 0 1 1 0 0 0 0 0 0
0 0 0 0 0 0 0 0 1 1 1 1 2 4 5 5 6 8 11 14 18 21 20 19 21 19 15 11 6 3 2 2 2 3 3 2 1 1 1 1 1 2 2 1 0 0 0 0 0
0 0 0 0 0 0 0 1 2 2 2 3 5 7 8 7 6 8 11 13 18 25 28 27 26 24 19 15 10 6 5 5 4 4 4 4 4 4 4 4 5 6 4 2 1 0 0 0 1
0 0 0 0 0 0 0 1 1 2 4 5 8 11 11 10 9 9 9 10 17 29 34 32 30 28 24 20 15 11 9 7 5 5 6 7 7 7 7 7 8 9 8 5 3 1 1 1 2
0 0 0 0 0 0 0 1 1 2 5 7 11 14 16 16 14 11 9 10 19 31 36 33 32 32 30 24 18 13 10 7 5 5 7 8 9 9 8 8 9 9 9 8 6 4 3 3 4
0 0 0 0 0 1 1 2 3 5 7 8 12 17 20 21 17 13 12 13 23 34 37 34 33 34 32 28 22 16 12 9 7 7 8 8 8 9 8 8 8 9 10 10 9 8 7 7 8
0 0 0 0 1 2 3 4 6 9 11 11 13 19 25 25 21 17 18 22 30 38 37 34 33 32 30 29 27 23 19 16 14 12 11 9 8 7 7 7 8 11 12 12 11 11 12 12 12
0 0 0 0 1 3 4 6 8 12 13 13 15 22 29 30 26 25 28 33 38 39 34 30 32 31 28 29 32 33 29 24 19 17 15 12 9 7 7 9 13 16 15 14 14 15 17 16 14
0 0 0 1 2 3 4 7 10 12 13 14 20 28 32 31 30 31 35 40 43 39 29 25 29 31 29 30 37 39 34 28 21 18 18 16 13 11 10 13 21 23 19 17 17 17 18 17 15
0 0 1 2 3 3 5 8 11 12 13 18 27 33 32 29 30 34 37 41 43 40 32 26 27 30 31 34 39 39 34 29 25 22 23 23 21 18 17 20 27 29 25 21 19 19 18 16 14
0 0 1 3 4 4 5 8 11 13 16 22 28 31 30 27 28 33 38 41 44 44 39 34 33 34 37 40 39 36 34 34 32 32 32 32 28 26 26 28 30 31 27 23 21 20 19 15 14
0 0 2 4 5 5 6 8 11 15 18 19 20 23 26 27 28 32 38 44 49 48 45 42 42 43 46 46 41 37 37 37 38 38 37 35 32 30 30 31 31 29 26 23 21 21 21 19 17
0 1 3 5 6 6 7 7 9 12 14 12 10 14 21 27 32 35 42 49 52 51 50 50 50 50 51 49 45 42 40 40 39 38 37 35 34 33 31 31 30 27 26 25 22 23 24 23 22
1 1 3 5 6 6 6 5 6 9 9 6 5 10 19 29 36 42 47 51 53 53 54 54 54 53 51 49 47 44 43 42 40 39 37 35 36 35 32 30 30 29 28 27 24 24 26 25 23
0 1 2 3 4 4 3 4 6 8 7 5 6 12 20 30 38 43 47 50 52 53 54 53 52 51 51 49 47 45 43 42 42 41 38 35 34 33 30 29 29 28 27 23 20 22 25 23 21
0 0 1 2 3 2 2 3 6 8 7 7 10 15 23 30 37 40 43 47 50 51 50 48 47 48 49 48 45 44 42 42 41 40 37 33 30 28 26 26 24 22 19 17 16 20 23 20 17
0 0 0 1 2 1 1 3 6 8 8 8 11 18 25 31 35 38 40 42 45 46 45 42 40 44 48 47 43 42 40 38 36 35 34 32 29 26 23 21 20 18 16 15 16 19 19 16 14
0 0 0 1 1 1 1 3 5 7 8 8 11 18 26 32 36 37 37 38 39 40 41 38 35 38 44 44 42 39 36 33 31 31 31 30 28 25 21 18 17 18 17 17 17 17 14 13 14
0 0 0 1 1 0 1 3 6 7 9 11 15 19 25 30 33 34 35 35 35 36 37 36 35 35 36 38 37 35 32 29 28 27 28 28 26 23 19 17 16 16 16 16 16 15 12 12 12
0 0 0 1 1 0 1 3 6 8 10 12 16 20 22 25 29 31 32 34 34 35 35 34 34 31 29 29 28 28 28 27 26 25 25 25 23 20 18 17 16 15 14 13 13 12 11 10 9
0 0 0 0 0 0 1 3 6 9 11 11 14 18 20 22 25 29 32 34 34 33 32 32 32 28 25 24 24 24 23 23 23 22 21 20 17 16 16 16 16 14 12 12 12 11 10 9 8
0 0 0 0 1 1 1 2 4 8 10 11 12 15 18 20 24 30 33 32 32 31 30 30 30 27 24 23 23 22 19 18 19 18 16 14 13 13 13 13 13 12 11 11 12 11 10 10 10
0 0 0 0 1 1 0 1 2 5 8 10 11 13 18 21 25 30 31 30 30 30 30 29 26 24 24 22 20 19 17 16 15 15 13 12 11 10 9 8 8 9 9 10 11 11 11 11 11
0 0 0 0 0 0 0 0 1 5 8 10 11 14 19 21 23 25 26 26 26 26 28 26 22 21 21 19 17 15 14 13 11 10 9 8 7 6 5 4 5 6 6 7 10 11 12 12 11
0 0 0 0 0 0 0 0 2 6 9 11 13 15 17 19 19 19 19 19 18 20 22 22 20 17 16 15 14 12 10 8 6 5 5 5 4 4 3 3 4 5 4 5 7 10 10 11 10
0 0 0 0 0 0 0 1 3 6 10 11 11 11 14 17 17 15 15 15 13 15 18 19 18 16 14 12 11 9 7 5 4 4 5 4 3 3 3 3 3 4 3 3 5 6 6 7 8
0 0 0 0 0 0 0 1 3 6 9 10 7 7 12 17 17 15 16 15 13 13 16 18 18 16 13 11 10 8 6 4 4 5 5 4 3 3 3 3 3 3 3 3 3 4 4 4 6
0 0 0 0 0 1 1 1 3 6 8 8 6 5 10 15 16 16 16 15 12 13 15 16 15 14 12 10 9 9 7 4 4 6 6 4 3 3 3 3 3 3 3 3 3 3 3 3 4
0 0 0 0 0 1 2 2 4 6 7 7 6 6 9 14 15 14 13 11 10 12 14 14 13 12 10 9 9 9 7 5 4 6 6 5 4 3 3 3 3 3 3 3 3 3 3 3 3

GEFSSGP_con_probscp_192.txt.gz
Probability
1 1 0 0 0 0 0 0 0 0 1 2 2 2 4 6 8 9 7 7 8 11 13 19 26 25 22 20 19 18 16 14 10 6 3 1 1 2 2 2 1 0 0 0 0 0 0 0 0
1 0 0 0 0 0 0 0 0 1 2 4 4 3 5 8 10 11 10 11 13 12 13 19 26 26 23 21 20 19 17 16 13 9 5 3 2 2 1 1 0 1 1 0 0 0 0 0 0
0 0 0 0 0 0 0 0 1 2 4 5 5 5 6 8 11 12 13 16 17 13 11 17 26 30 26 23 21 20 18 17 15 12 8 6 5 3 2 1 1 1 1 0 0 0 0 0 0
0 0 0 0 0 0 0 1 2 4 5 6 6 6 6 8 10 12 15 18 17 12 9 15 26 32 28 24 23 22 21 19 17 14 10 8 6 5 3 3 2 2 1 1 1 1 1 1 1
0 0 0 0 0 0 0 2 5 7 8 9 10 9 8 8 10 13 15 16 14 12 12 17 26 31 29 26 24 24 24 22 20 16 13 11 7 5 3 3 4 3 3 4 4 4 3 2 2
0 0 0 0 0 0 1 3 8 12 11 12 14 14 11 11 11 13 14 15 15 18 20 22 26 29 30 30 28 26 24 22 19 18 16 12 8 5 3 4 5 5 6 6 6 7 7 5 4
0 0 0 0 0 0 1 6 12 15 14 12 14 15 14 14 14 14 15 17 19 23 25 24 24 25 29 32 31 27 24 20 18 17 17 13 9 6 5 5 5 6 7 8 7 8 8 8 7
0 0 0 0 0 0 2 7 12 16 16 15 13 14 15 16 17 18 20 23 23 23 23 23 22 23 26 29 30 29 26 22 20 18 16 14 10 8 7 6 6 7 10 10 9 9 8 8 7
0 0 0 0 0 1 3 6 9 13 18 19 18 18 19 21 22 22 25 28 26 22 21 22 24 25 27 29 30 30 27 23 21 20 17 14 12 11 11 9 9 11 12 13 12 10 8 6 6
0 0 0 0 0 1 3 5 7 11 16 21 25 26 27 27 25 26 28 30 28 24 22 22 25 28 30 31 32 31 26 22 21 21 19 15 14 14 13 11 10 11 12 12 12 10 8 6 6
0 0 0 0 1 2 4 5 7 9 12 19 26 29 29 28 25 26 29 29 27 25 23 23 25 28 30 32 32 31 27 23 22 21 19 16 13 13 12 8 7 7 8 9 11 10 7 5 4
0 0 1 1 3 5 7 8 8 8 10 16 24 28 27 25 22 25 28 26 23 22 23 23 25 26 28 31 32 32 31 29 27 23 19 15 12 12 10 7 5 5 5 8 10 10 8 5 3
0 1 2 3 5 7 10 10 9 8 10 16 24 29 27 22 22 26 29 27 23 22 24 24 25 25 28 32 34 35 35 33 29 25 21 16 13 12 11 9 7 7 6 7 9 9 7 6 5
0 1 3 4 5 7 10 10 8 7 9 15 22 27 26 22 23 28 33 32 29 27 28 29 28 29 32 35 36 35 35 33 29 25 21 18 15 13 11 9 8 7 5 5 6 6 5 5 4
1 2 3 3 3 4 7 8 6 7 10 15 21 26 26 24 22 26 32 34 31 30 32 33 33 31 32 34 34 33 32 30 26 22 21 20 17 13 8 7 6 5 4 3 2 2 2 2 2
1 1 2 2 1 2 4 5 5 6 11 19 25 26 26 23 20 23 28 30 29 30 33 35 33 28 27 29 30 30 29 27 24 21 19 19 17 12 7 4 4 4 3 2 0 0 0 0 0
0 0 1 1 1 0 2 4 4 6 11 19 24 24 23 22 20 19 22 25 27 28 31 32 28 23 21 22 23 25 25 23 19 16 14 13 13 12 8 4 3 3 3 1 0 0 0 1 1
0 0 0 0 0 0 1 2 2 5 11 18 21 21 21 20 18 15 17 23 25 27 28 27 23 19 17 16 16 17 18 17 14 11 9 9 10 11 9 5 4 4 3 1 0 0 0 1 2
0 0 1 1 0 0 1 2 2 5 12 18 20 20 20 18 16 14 17 22 24 25 26 24 20 16 15 14 13 12 12 12 12 9 9 9 10 10 8 5 5 4 3 1 0 0 0 1 1
0 0 1 1 1 0 1 2 3 6 12 16 18 19 19 18 17 16 18 21 22 22 24 23 20 17 16 15 13 11 10 11 11 9 9 9 8 7 6 4 4 3 1 0 0 0 0 0 0
0 0 1 1 1 0 1 2 4 6 10 13 15 16 17 17 16 15 16 18 18 19 21 22 20 17 17 16 14 11 9 10 9 8 7 7 6 4 4 3 3 2 1 0 0 0 0 0 0
0 0 0 0 0 0 0 1 3 6 8 10 11 12 13 11 11 12 13 14 15 15 17 17 17 16 15 16 14 12 10 8 7 6 5 4 4 3 3 4 3 1 0 0 0 0 0 0 0
0 0 0 0 0 0 0 1 3 5 6 7 7 8 8 6 6 9 12 12 12 12 13 14 13 12 11 11 11 11 9 6 4 4 4 3 4 5 5 5 3 1 0 0 0 0 0 0 0
0 0 0 0 0 0 0 1 2 3 4 4 4 5 5 5 6 9 12 12 11 11 11 11 11 9 8 8 8 8 6 4 3 3 3 3 4 5 6 5 3 1 0 0 0 0 0 0 0
0 0 0 0 0 0 0 0 1 1 2 3 3 3 3 3 5 8 11 11 11 11 11 10 9 8 7 8 8 6 5 4 3 3 3 3 3 4 5 4 3 2 1 0 0 0 0 0 0
0 0 0 0 0 0 0 0 1 1 1 2 3 3 1 1 3 5 7 9 10 11 10 10 9 7 7 7 7 6 5 5 4 3 3 3 3 3 4 4 4 3 1 1 1 0 0 0 0
0 0 0 0 0 0 1 1 2 2 1 2 3 3 2 2 3 3 4 5 7 8 9 9 8 6 5 6 6 6 6 6 5 4 3 3 3 3 4 4 4 3 3 2 2 1 0 0 0
0 0 0 0 0 0 0 0 1 2 1 1 2 3 4 4 3 2 2 3 5 5 6 6 6 4 4 5 6 6 5 4 4 3 3 3 3 3 3 4 4 3 3 3 3 1 0 0 0
0 0 0 0 0 0 0 0 1 1 1 0 1 1 3 3 2 2 2 2 3 3 3 3 3 3 3 3 4 4 4 3 3 3 3 3 3 3 3 3 3 3 3 3 3 2 1 0 0
0 0 0 0 0 0 0 1 1 1 0 0 0 0 1 2 2 2 1 1 2 2 2 2 1 1 1 2 3 3 3 3 3 3 3 3 3 3 3 3 3 3 3 3 3 2 1 0 0

GEFSSGP_con_probscp_198.txt.gz
Probability
0 1 1 1 0 0 0 0 0 0 1 2 4 4 5 6 5 4 3 2 5 10 16 23 27 28 29 29 29 30 30 29 29 28 25 22 20 20 19 16 12 9 7 6 5 6 6 5 5
1 2 2 2 1 0 0 0 0 1 2 3 4 4 4 4 5 4 3 2 5 11 17 22 27 29 29 30 30 31 30 30 29 27 24 22 22 19 16 12 9 8 6 4 4 4 4 4 4
1 2 3 2 1 0 0 0 1 3 5 5 5 4 4 3 4 3 3 3 6 12 18 22 26 29 30 31 32 31 29 29 28 25 23 22 22 19 14 9 8 7 5 3 3 3 3 3 2
0 1 3 2 1 0 0 0 1 5 7 7 6 5 4 3 3 3 4 4 8 14 18 22 27 30 31 33 33 30 27 26 25 23 21 21 21 19 15 11 9 8 7 5 4 3 2 1 1
0 1 2 2 1 0 0 0 2 6 8 8 8 7 5 4 4 6 7 7 10 15 18 20 26 29 31 32 30 26 24 23 23 22 21 21 21 19 16 13 10 9 9 8 7 5 4 2 2
0 0 1 1 0 0 0 1 4 7 9 9 8 7 6 5 5 8 11 11 12 16 16 16 20 25 27 28 26 24 23 23 24 24 24 24 22 20 17 14 12 11 11 10 10 8 7 6 7
0 0 0 0 0 0 0 2 6 9 10 10 8 7 6 5 5 9 12 13 13 14 13 12 15 19 21 22 22 23 23 24 25 26 25 25 23 20 18 16 15 12 10 9 9 8 7 9 11
0 0 0 0 0 1 1 3 6 8 9 9 8 6 5 6 8 11 13 14 13 12 10 9 12 17 18 18 19 23 25 24 24 25 24 22 19 17 17 17 16 12 9 7 6 5 5 7 8
0 0 0 0 0 1 1 3 5 7 9 11 10 9 10 13 16 16 16 14 12 10 8 8 12 17 19 19 21 25 26 24 21 21 21 19 15 13 14 15 14 12 8 5 2 2 3 4 6
0 0 0 0 0 1 2 4 5 7 10 12 13 14 18 22 22 19 16 14 13 10 9 10 12 16 19 21 25 27 27 24 20 18 19 18 15 12 12 12 12 11 9 5 3 2 3 5 6
0 0 0 1 1 1 2 3 5 7 8 9 13 17 21 24 23 19 15 15 15 12 11 11 11 13 17 21 24 26 26 24 20 18 18 18 16 14 11 10 10 10 9 8 6 6 6 7 7
0 1 1 1 1 1 1 2 5 6 5 6 11 17 19 20 19 16 14 14 14 12 11 10 9 11 16 20 21 22 24 24 22 21 20 19 18 15 11 8 8 9 9 9 9 8 7 7 7
1 1 2 2 2 2 2 2 4 6 5 6 13 19 19 16 14 13 13 12 12 11 10 8 7 9 14 18 19 18 20 21 21 22 22 20 18 15 9 5 6 7 8 8 9 7 5 6 7
0 1 1 2 3 2 3 3 5 7 8 11 17 20 17 13 11 12 12 13 13 12 11 9 9 11 14 16 16 15 16 16 17 19 19 17 17 14 8 4 5 6 7 7 7 6 4 4 5
0 0 0 1 2 3 3 3 4 8 12 16 19 18 14 11 11 12 13 13 13 13 13 13 13 13 14 13 13 12 12 13 14 15 15 14 15 13 9 6 6 6 5 5 5 4 3 3 3
0 0 0 0 1 2 3 3 4 9 17 20 19 16 14 12 11 10 10 10 11 12 14 15 14 13 12 11 10 10 11 11 11 12 12 13 14 13 11 8 6 5 4 3 3 2 2 1 1
0 0 0 0 0 1 2 2 4 10 18 21 19 16 14 12 10 8 7 7 7 8 10 12 12 10 9 8 8 9 9 9 9 9 10 10 11 11 10 8 6 5 4 3 3 2 1 0 0
0 0 0 0 0 1 1 2 4 10 16 18 17 15 12 10 9 7 6 5 5 4 6 9 10 9 7 7 7 7 8 8 8 8 8 8 8 9 8 7 6 4 4 4 5 4 2 0 0
0 0 0 0 1 1 1 2 4 9 13 15 14 13 11 10 10 7 5 6 5 4 5 6 8 8 8 7 7 7 6 6 7 7 6 6 7 8 8 7 6 4 3 4 5 5 3 1 0
0 0 0 0 1 2 1 2 4 8 12 12 11 10 9 10 9 6 5 6 6 6 6 6 7 8 8 9 9 8 6 5 5 6 5 4 6 7 7 6 4 3 3 3 4 4 3 2 1
0 0 0 0 1 2 1 1 3 7 9 9 8 8 7 7 7 5 4 5 5 7 7 7 7 7 9 10 10 8 6 4 4 5 4 3 4 4 4 3 2 2 2 2 2 2 2 2 2
0 0 0 0 1 1 0 0 1 4 5 6 6 5 4 4 4 3 3 3 3 5 7 7 7 8 8 10 11 9 5 3 4 4 4 3 3 3 2 1 0 1 1 1 1 1 1 1 1
0 0 0 0 0 0 0 0 0 1 2 3 4 3 3 3 3 2 1 1 1 3 6 7 7 8 8 10 10 8 4 3 4 5 4 4 4 3 1 0 0 0 0 0 0 0 0 0 0
0 0 0 0 0 0 0 0 0 0 1 1 2 3 3 3 1 1 0 0 0 2 5 6 6 7 8 9 8 6 4 3 4 5 5 5 4 3 1 1 1 1 0 0 0 0 0 0 0
0 0 0 0 0 0 0 0 0 0 0 1 2 3 3 2 1 1 1 0 0 2 5 6 6 6 6 7 6 6 5 5 4 5 5 4 4 3 3 2 2 2 1 1 0 0 0 0 0
0 0 0 0 0 1 1 0 0 0 0 1 2 3 3 2 1 1 1 0 0 1 4 6 5 4 4 4 5 5 5 4 4 4 4 3 3 3 3 3 3 3 3 2 1 1 0 0 0
0 0 0 0 1 2 1 0 0 0 0 1 2 3 3 2 1 1 1 0 0 1 2 3 3 3 3 3 4 4 4 4 4 4 3 3 3 3 3 3 3 3 3 3 3 2 1 1 0
0 0 0 0 1 1 1 0 0 0 0 0 1 1 2 1 0 0 0 0 0 0 1 1 1 2 2 3 3 4 4 3 4 3 3 3 3 2 2 3 3 3 3 3 3 3 3 2 1
0 0 0 0 0 0 0 0 0 0 0 0 0 1 1 1 0 0 0 0 0 0 0 0 0 1 1 1 2 3 3 3 3 3 3 3 3 3 3 3 3 3 3 3 3 3 3 3 3
0 0 0 0 0 0 0 0 0 0 0 0 1 1 1 0 0 0 0 0 0 0 0 0 0 0 0 0 1 3 3 3 3 3 3 3 3 3 3 3 3 3 3 3 3 3 3 3 3

GEFSSGP_con_probscp_204.txt.gz
Probability
0 0 0 0 0 0 0 0 0 0 1 3 3 3 3 2 2 2 2 2 3 8 16 22 23 23 22 21 20 19 21 25 26 26 25 23 20 16 12 10 11 10 8 6 5 3 1 0 0
0 0 0 0 0 0 0 0 0 1 3 4 4 4 3 2 3 2 1 2 3 7 14 21 24 24 22 20 18 19 21 25 26 26 25 25 24 20 14 12 12 11 8 7 5 4 2 1 0
0 0 0 0 0 0 0 0 0 1 3 5 5 5 3 3 3 2 1 1 2 5 12 21 24 23 22 21 20 21 23 25 26 26 27 28 28 23 17 13 12 10 8 7 6 5 3 1 0
0 0 0 0 0 0 0 0 0 0 2 3 4 5 4 3 1 2 2 2 2 3 9 18 23 23 22 23 24 24 25 25 26 27 28 29 28 23 18 15 12 9 8 9 9 7 5 3 2
0 0 0 0 0 0 0 0 0 0 0 1 2 4 5 3 1 2 4 3 3 4 8 16 22 22 22 24 25 25 26 25 25 27 29 30 28 24 20 18 13 11 11 11 11 8 6 5 4
0 0 0 0 0 0 0 0 0 0 0 0 0 3 6 5 4 5 6 7 7 7 9 15 20 21 21 23 23 23 24 25 26 29 30 30 27 23 21 19 15 12 11 12 10 7 5 4 4
0 0 0 0 0 0 0 0 0 0 0 0 0 2 6 8 9 9 11 13 12 11 13 15 16 17 17 19 21 22 22 25 28 30 31 29 25 21 19 17 16 12 10 10 8 5 4 3 3
0 0 0 0 0 1 0 0 0 0 0 0 0 1 5 9 12 13 13 14 14 13 14 14 12 11 12 14 17 20 22 25 29 31 30 26 22 19 18 17 17 15 11 9 6 4 3 3 3
0 0 0 0 0 0 0 0 1 0 0 1 1 2 5 9 12 14 14 13 13 13 13 12 10 9 8 10 14 17 20 24 26 28 27 24 20 18 17 17 19 18 14 10 7 4 3 3 3
0 0 0 0 0 0 0 0 0 0 1 2 2 3 7 9 11 15 16 15 15 15 13 11 10 10 10 10 14 18 20 22 23 23 24 23 22 20 17 18 21 19 14 9 6 4 3 3 3
0 0 0 0 0 0 0 0 0 1 1 2 4 7 9 9 11 16 18 18 18 17 14 12 13 14 15 16 19 23 25 24 23 24 24 25 26 24 21 20 20 16 10 6 5 5 5 3 3
0 0 0 0 0 0 0 0 1 3 3 3 6 10 12 12 14 18 19 19 19 19 17 16 17 19 20 22 26 29 29 28 28 29 29 29 29 27 25 23 21 16 11 9 8 8 6 4 4
0 0 0 0 0 0 0 0 2 5 4 5 8 12 14 16 18 20 21 22 21 22 22 21 22 23 24 26 29 31 31 32 33 33 32 31 29 27 26 26 24 20 16 15 14 11 8 7 7
0 0 0 0 0 0 0 1 3 4 3 5 9 11 14 16 18 21 24 25 23 24 24 24 23 23 25 27 28 29 30 32 33 32 30 27 26 25 25 27 26 23 19 18 18 14 10 10 10
0 0 0 0 0 0 0 1 3 2 2 4 7 11 13 15 17 19 23 24 23 21 21 21 20 20 22 25 25 25 26 27 27 27 25 23 22 23 25 27 27 23 20 20 20 15 11 9 9
0 0 0 0 0 1 1 1 3 2 2 3 5 9 11 13 15 16 17 19 18 18 18 17 16 17 19 22 22 21 22 23 24 25 25 23 21 21 24 26 25 22 20 20 20 16 12 9 8
0 0 0 0 0 0 1 2 2 2 2 3 5 7 9 10 11 11 11 11 13 15 16 15 14 16 18 21 22 21 21 21 22 24 25 24 21 20 21 23 23 20 18 19 19 18 15 11 9
0 0 0 0 0 0 1 3 3 2 2 4 5 6 7 6 7 10 10 8 9 12 13 12 12 15 19 21 21 21 20 18 18 21 23 23 21 19 19 21 22 19 17 18 19 18 16 13 11
0 0 0 0 0 1 2 4 4 3 3 5 6 6 5 4 7 11 11 8 8 9 10 9 11 14 17 18 19 18 16 13 13 15 18 19 19 18 17 18 20 19 16 15 16 17 15 13 11
0 0 0 0 0 1 2 3 4 4 4 5 5 4 3 4 9 13 12 9 7 6 7 8 9 11 14 15 16 15 14 11 10 11 12 14 15 15 13 14 16 17 15 12 12 13 13 11 11
0 0 0 0 0 0 1 2 4 5 5 4 4 3 2 3 9 14 14 10 7 5 6 7 7 8 11 13 13 14 14 12 10 10 10 12 13 13 12 13 14 14 12 10 10 10 10 10 11
0 0 0 0 0 0 0 1 4 6 6 4 3 2 1 3 8 13 13 9 6 5 5 6 7 8 9 11 11 12 14 13 11 10 11 12 12 11 11 12 12 11 9 8 8 8 9 10 11
0 0 0 0 0 0 0 0 2 5 6 5 4 2 1 2 8 11 10 7 5 4 4 5 7 8 9 9 10 11 13 13 12 12 12 12 11 9 8 9 10 9 7 6 7 8 9 9 9
0 0 0 0 0 0 0 0 2 4 5 4 4 3 2 3 6 8 8 6 5 4 4 4 7 8 8 8 8 9 12 13 13 13 13 11 9 7 6 7 7 7 6 6 7 9 10 9 8
0 0 0 0 0 0 0 1 3 4 4 3 4 4 3 4 5 6 6 5 4 4 4 4 4 5 6 6 6 7 9 12 14 13 12 10 8 7 7 7 6 6 6 6 6 8 9 8 8
0 0 0 0 0 0 0 2 4 4 3 2 3 3 3 4 4 4 3 3 2 3 4 4 5 5 5 4 4 5 7 10 11 11 10 9 8 8 8 7 6 4 4 4 5 6 7 7 7
0 0 0 0 0 0 1 3 5 4 1 1 2 2 2 3 3 1 1 1 1 2 4 5 7 7 5 4 4 5 6 7 9 9 8 7 7 7 8 8 6 4 3 2 3 4 5 6 6
0 0 0 0 0 0 1 3 4 2 1 0 0 1 2 3 3 1 0 0 0 1 3 5 5 6 5 4 5 6 6 7 8 9 8 6 5 5 6 6 6 5 4 3 2 3 4 5 6
0 0 0 0 0 0 0 1 1 1 0 0 0 0 2 3 3 2 1 0 0 1 3 3 3 3 3 3 4 5 6 6 7 8 8 6 4 3 4 4 4 5 5 4 3 3 3 4 4
0 0 0 0 0 0 1 1 1 0 0 0 0 0 1 3 3 3 3 1 0 1 2 3 3 2 2 2 3 4 5 6 7 7 6 4 4 3 3 3 4 4 4 4 4 3 3 3 3

GEFSSGP_con_probscp_210.txt.gz
Probability
0 0 1 2 2 1 0 0 0 0 0 0 0 0 2 4 4 5 7 9 15 19 20 22 25 23 18 11 6 4 3 1 1 3 5 5 4 3 3 4 6 6 6 5 5 5 4 4 3
0 1 2 2 1 0 0 0 0 0 0 0 1 2 3 4 5 6 7 9 14 19 22 25 27 24 19 13 8 5 3 1 2 4 7 8 7 5 4 4 6 7 7 6 4 4 4 4 4
0 1 1 1 0 0 0 0 0 0 0 1 3 5 5 5 6 8 9 9 13 20 26 31 32 27 21 16 11 7 5 2 2 5 8 11 12 10 7 6 6 8 8 7 5 4 4 5 5
0 0 0 0 0 0 0 0 0 0 1 3 6 10 10 8 9 11 11 11 15 21 28 34 35 30 23 18 13 10 7 5 4 5 8 11 15 15 13 10 9 10 10 10 8 7 7 8 7
0 0 0 0 0 0 0 0 0 1 2 5 10 15 16 15 14 13 12 12 17 23 27 32 35 32 25 20 15 12 10 9 9 9 10 12 16 18 17 15 14 13 12 11 10 10 10 9 8
0 0 0 0 0 0 0 1 1 1 3 6 11 16 19 19 15 12 10 11 16 21 24 29 34 33 28 24 19 17 16 16 17 16 16 18 20 21 19 19 19 18 15 13 11 10 10 9 7
0 0 0 0 0 0 0 1 2 3 4 6 10 13 17 19 16 11 9 10 12 16 21 27 31 31 30 28 25 25 27 28 26 24 23 25 25 23 21 21 22 21 19 16 13 12 10 8 6
0 0 0 0 0 0 0 1 2 3 5 7 9 10 14 18 16 14 11 10 11 15 19 25 29 29 29 29 30 31 34 35 32 29 28 28 26 24 23 23 23 23 20 17 16 15 12 9 7
0 0 0 0 0 0 0 1 2 3 5 8 9 10 13 15 16 16 15 13 15 18 21 23 26 27 26 28 32 35 35 33 32 32 31 30 28 26 27 26 25 25 21 17 16 16 14 12 11
0 0 0 0 0 0 0 0 1 2 5 9 10 13 15 15 16 20 21 20 21 24 25 23 23 23 22 26 33 36 35 33 33 32 32 31 29 29 28 27 26 25 21 17 15 15 15 14 12
0 0 0 0 0 0 0 1 2 3 5 9 13 16 19 20 21 24 27 27 26 28 28 26 25 23 22 27 33 36 37 38 35 33 32 31 29 27 25 25 25 25 22 20 18 17 15 12 9
0 0 0 0 0 0 1 2 5 7 8 11 15 18 22 24 25 27 30 30 31 32 32 32 32 32 32 33 36 37 38 39 36 34 33 32 28 25 23 22 24 25 24 22 21 19 16 10 6
0 0 0 0 0 0 1 2 5 7 9 12 15 18 23 25 26 29 31 32 34 37 38 38 39 41 41 39 36 35 35 36 36 35 34 32 30 28 24 22 23 24 23 21 20 18 15 11 8
0 0 0 0 0 0 1 2 4 6 8 11 14 18 23 25 26 27 28 29 34 38 39 38 39 41 42 38 35 32 30 32 34 35 34 32 30 30 28 26 25 24 23 20 17 16 13 11 10
0 0 0 0 0 0 1 3 5 7 7 9 13 17 22 25 24 23 22 24 29 34 35 34 33 35 36 34 32 29 27 28 33 35 34 31 28 29 30 30 28 25 23 19 16 14 12 10 9
0 0 0 0 0 0 1 4 8 9 8 10 13 17 22 23 22 21 20 21 25 28 30 28 27 29 30 30 28 26 25 28 33 35 35 32 28 28 28 28 25 22 21 18 14 12 11 10 9
0 0 0 0 0 0 1 5 9 9 9 11 14 18 21 22 22 21 20 19 20 23 24 24 24 25 26 26 24 23 23 26 31 33 33 30 28 26 25 24 22 19 19 17 13 12 12 11 11
0 0 0 0 0 0 1 5 8 9 9 12 16 18 20 22 23 23 21 19 18 19 20 21 22 21 21 22 21 21 20 21 25 27 26 24 23 22 21 22 22 20 19 17 14 14 14 13 12
0 0 0 0 0 0 2 5 7 8 8 12 18 21 21 21 24 26 25 23 21 21 22 22 21 19 18 20 22 21 17 16 19 20 20 20 20 20 19 20 20 18 17 16 14 13 13 13 13
0 0 1 1 1 1 2 5 8 9 10 14 20 22 23 23 25 27 28 26 25 24 24 23 22 21 21 23 23 22 17 14 15 16 16 18 19 18 18 19 19 16 15 14 13 12 12 13 13
0 0 1 2 2 2 2 5 9 12 14 17 19 22 24 25 26 27 27 28 27 26 24 23 23 24 23 23 22 21 18 14 13 13 15 17 18 17 17 19 20 19 17 15 14 13 13 13 12
0 0 1 1 1 1 1 5 11 16 17 19 20 21 22 23 23 22 24 25 24 24 23 23 23 22 20 19 19 18 16 12 11 11 13 15 16 15 16 17 18 20 19 18 17 15 14 12 10
0 0 0 0 0 0 0 4 12 17 17 18 21 21 21 19 16 16 18 19 18 19 20 20 21 20 17 16 16 15 13 11 9 9 10 11 12 13 14 14 15 17 18 18 18 16 15 12 9
0 0 0 0 0 0 0 4 12 16 15 16 19 21 19 14 10 12 14 15 14 14 15 16 18 19 17 15 13 12 11 10 9 9 9 8 8 10 12 13 14 15 16 15 15 16 16 14 10
0 0 0 0 0 0 1 5 11 14 14 14 16 19 17 11 9 10 14 16 16 13 13 14 16 17 15 12 11 9 9 9 9 9 9 10 9 9 10 11 13 16 15 13 13 15 16 14 12
0 0 0 0 0 0 2 7 12 14 13 12 13 15 14 12 10 10 12 16 16 13 12 12 12 14 13 11 9 8 7 8 8 8 10 11 10 10 10 10 12 14 13 12 11 11 12 12 12
1 1 0 0 0 0 2 9 14 14 11 8 8 10 11 11 10 8 9 12 12 11 11 11 10 11 11 11 10 7 6 6 6 7 9 10 10 10 10 9 9 10 9 8 8 8 8 9 9
0 0 0 0 0 0 2 8 14 13 9 5 4 7 9 8 7 6 7 9 9 9 10 11 10 10 11 11 10 7 5 4 4 4 7 10 11 11 10 8 8 8 7 6 5 5 6 6 6
0 0 0 0 0 0 2 6 10 10 7 4 3 6 8 6 5 6 7 7 7 8 8 9 9 9 10 10 9 7 5 5 5 4 5 8 11 11 10 8 7 6 6 5 4 4 5 5 5
0 0 0 0 0 0 2 5 7 8 7 4 3 6 8 6 5 6 6 6 6 5 6 7 7 7 8 9 9 7 6 6 6 6 5 6 8 10 10 9 6 5 5 6 5 4 5 4 4

GEFSSGP_con_probscp_216.txt.gz
Probability
0 0 0 0 0 0 0 0 0 0 0 1 3 4 6 8 7 5 1 2 6 8 10 16 23 26 24 23 25 24 21 17 14 10 7 8 9 11 10 8 6 5 6 7 8 9 8 6 5
0 0 0 0 0 0 0 1 1 1 1 2 3 4 7 8 7 4 2 3 7 8 9 15 25 27 23 21 23 23 21 18 16 13 11 10 10 10 11 10 7 6 7 8 8 8 7 6 5
0 0 0 0 0 0 0 1 2 3 3 3 3 5 8 8 6 3 3 6 8 7 8 16 27 29 22 17 18 19 18 17 17 17 15 13 11 11 11 10 8 7 7 8 8 7 6 5 3
0 0 0 0 0 0 0 1 2 3 4 2 3 5 7 8 6 5 6 8 8 7 8 16 27 29 23 17 15 16 16 17 18 19 19 17 15 13 11 10 8 8 8 8 7 6 5 4 3
0 0 0 0 0 0 0 0 0 2 3 2 3 4 5 6 7 9 9 9 10 9 9 16 25 28 25 19 16 16 16 16 18 19 21 21 19 17 15 13 12 11 10 10 9 7 5 3 3
0 0 0 0 0 0 0 0 1 2 4 3 2 3 4 6 9 12 14 13 13 12 11 15 22 25 24 21 18 17 17 16 17 19 21 22 21 20 20 19 17 14 12 12 11 9 6 3 2
0 0 0 0 0 0 0 1 3 4 6 4 2 3 4 7 10 15 18 20 19 18 16 15 17 19 20 20 20 20 21 19 17 18 19 19 19 19 20 21 20 16 14 13 13 13 10 6 5
0 0 0 0 0 0 0 2 6 8 8 6 3 4 8 11 14 18 22 24 23 22 21 18 16 15 14 14 17 22 24 22 19 17 18 18 18 17 17 18 19 18 16 14 15 16 14 11 10
0 0 0 0 0 0 1 3 7 10 11 10 9 11 15 18 19 20 22 22 22 22 20 18 17 13 10 10 14 19 22 20 18 16 18 20 21 19 17 17 18 18 17 17 17 17 16 14 12
0 0 0 0 0 0 1 3 6 9 12 14 16 18 21 23 21 20 18 16 15 15 14 13 13 12 10 11 13 16 16 16 16 15 17 20 22 21 20 19 17 17 18 17 16 14 14 13 12
0 0 0 0 0 0 1 2 5 8 9 13 18 21 22 22 20 17 14 12 11 11 10 9 8 8 8 10 12 13 13 13 13 13 14 17 20 22 21 19 18 17 17 16 14 13 13 13 13
0 0 0 0 0 0 1 3 6 8 8 11 16 20 21 19 16 14 12 11 11 11 10 8 6 5 6 9 11 12 11 10 10 10 11 13 16 20 20 19 17 16 16 15 14 13 13 13 14
0 0 0 0 0 0 2 6 8 9 10 13 16 18 19 17 14 12 11 11 12 12 11 9 7 6 6 7 9 11 10 8 7 8 10 11 13 15 16 15 13 12 13 14 13 13 12 13 13
0 0 0 0 0 1 4 7 9 10 12 15 17 17 17 16 16 14 14 13 12 10 10 10 9 7 7 8 8 8 7 5 5 6 8 10 11 12 11 10 9 8 9 10 11 11 12 11 11
0 0 0 0 0 2 4 7 9 11 14 16 17 16 16 18 20 19 15 12 11 10 10 11 10 8 8 8 7 6 5 4 5 7 7 7 9 10 10 9 8 7 7 8 9 9 9 8 6
0 0 0 0 0 2 4 6 10 15 18 17 17 16 18 21 23 19 13 10 8 8 8 9 9 8 7 7 6 4 4 4 5 7 6 6 7 9 9 9 9 8 8 8 7 7 7 5 3
0 0 0 0 0 1 3 5 10 17 21 20 18 17 19 20 17 13 10 8 6 6 5 5 5 5 6 6 4 3 4 4 4 5 5 5 4 5 6 7 7 8 9 8 6 5 4 3 2
0 0 0 0 0 1 3 6 10 16 21 22 20 20 20 17 12 9 8 6 5 3 2 1 2 3 5 5 5 4 4 4 3 3 3 3 2 1 2 3 5 6 7 7 5 3 3 3 3
0 0 0 0 0 1 5 8 11 15 20 22 22 22 21 17 13 10 9 6 4 3 1 0 1 2 3 4 5 5 4 4 3 2 1 1 1 0 0 1 3 4 5 4 3 3 4 3 3
0 0 0 0 0 2 6 9 11 14 18 21 22 22 19 16 14 12 10 7 4 3 2 0 0 1 1 3 5 5 5 4 3 2 1 1 1 1 0 1 2 3 3 3 3 3 4 3 2
0 0 0 0 0 2 5 8 10 13 15 17 20 20 17 14 12 12 11 8 4 2 1 0 0 0 0 2 4 6 5 5 4 3 2 1 2 2 1 0 1 2 3 3 3 4 5 4 3
0 0 0 0 0 1 2 5 8 10 11 13 16 18 16 12 11 10 9 7 5 3 1 0 0 0 0 1 4 6 6 5 5 4 3 3 3 3 2 1 0 1 2 2 3 4 5 4 4
0 0 0 0 0 0 0 2 5 8 9 10 13 16 14 11 10 9 8 7 6 4 2 1 1 1 0 1 3 6 6 5 4 3 3 3 3 3 3 2 1 1 1 1 2 3 4 4 5
0 0 0 0 0 0 0 1 3 6 8 9 12 13 11 9 9 8 7 6 6 4 3 2 1 1 1 2 4 5 5 3 1 1 1 3 3 3 3 3 3 2 2 1 1 2 3 4 4
0 0 0 0 0 0 0 1 2 4 6 8 10 9 7 7 7 7 7 6 6 4 3 2 1 1 1 2 3 3 3 1 0 0 1 2 3 3 3 3 3 3 3 2 2 1 2 2 2
0 0 0 0 0 0 0 1 1 3 5 7 6 4 4 6 6 6 6 6 6 4 3 2 1 0 0 1 1 1 1 0 0 0 0 1 2 2 2 2 2 3 3 3 1 0 0 0 0
0 0 0 0 0 0 0 0 1 3 5 5 3 2 3 6 6 6 6 6 5 4 3 2 0 0 0 0 0 0 0 0 0 0 0 0 1 1 1 1 1 2 2 2 1 0 0 0 0
0 0 0 0 0 0 0 0 1 2 3 3 2 2 3 5 6 5 5 6 5 3 3 2 1 0 0 0 1 0 0 0 0 0 0 0 0 0 0 0 0 1 1 1 0 0 0 0 0
0 0 0 0 0 0 0 0 0 1 1 2 1 2 2 4 5 5 4 4 5 4 3 2 1 0 0 0 0 0 0 0 0 0 0 0 0 0 0 0 0 0 0 0 0 0 0 0 0
0 0 0 0 0 0 0 0 1 1 1 1 1 1 1 2 4 4 4 4 5 5 4 1 0 0 0 0 0 0 0 0 0 0 0 0 0 0 0 0 0 0 0 0 0 0 0 0 0

GEFSSGP_con_probscp_222.txt.gz
Probability
0 0 0 0 0 0 0 0 1 2 3 3 4 4 4 2 1 0 0 0 2 4 5 10 16 17 16 17 19 22 24 23 20 17 16 17 19 20 21 22 22 21 20 18 16 14 11 9 8
0 0 0 0 0 0 0 0 1 3 3 3 3 4 4 2 1 0 0 1 3 6 7 11 17 19 17 18 20 21 22 22 20 19 17 18 19 20 21 22 22 21 20 19 18 16 14 12 11
0 0 0 0 0 0 0 1 2 3 3 2 2 3 3 3 1 0 1 3 6 7 8 12 17 18 17 18 19 19 20 19 18 17 17 18 20 21 22 22 22 22 21 20 19 18 15 14 13
0 0 0 0 0 0 0 1 2 2 1 1 1 2 3 3 2 1 2 5 7 7 8 12 16 16 16 17 18 18 17 16 14 13 14 17 20 21 22 22 22 22 21 19 19 17 16 15 15
0 0 0 0 0 0 0 0 1 1 0 0 1 3 4 5 4 3 4 7 8 8 8 11 15 16 17 19 19 18 16 14 12 13 15 17 19 19 19 20 20 21 19 17 16 16 16 17 17
0 0 0 0 0 0 0 0 0 0 0 1 2 3 4 6 5 5 7 9 9 10 10 11 14 16 18 19 19 18 17 14 12 13 15 17 17 16 16 17 19 19 18 15 13 13 14 16 17
0 0 0 0 0 0 0 0 0 0 0 1 2 3 4 6 8 9 11 11 10 11 12 11 12 14 16 18 18 17 16 14 12 12 14 15 15 16 16 16 16 17 16 14 13 12 12 14 15
0 0 0 0 0 0 0 0 0 0 1 2 3 2 3 7 11 14 15 14 11 10 11 11 10 11 13 16 18 17 15 14 14 13 13 13 13 14 15 14 14 14 13 13 13 13 13 13 14
0 0 0 0 0 0 0 0 0 1 4 5 5 4 6 12 16 18 18 16 12 8 8 10 11 12 13 15 17 17 15 14 14 13 12 11 10 11 13 13 14 14 13 13 13 13 13 14 14
0 0 0 0 0 0 0 0 0 2 5 7 6 8 12 17 19 20 19 16 12 8 7 9 12 12 12 13 14 14 13 12 11 11 10 10 10 11 11 12 13 14 15 14 12 13 15 16 17
0 0 0 0 0 0 0 0 1 3 4 6 8 11 16 18 18 19 18 15 11 8 7 8 10 10 9 9 9 9 8 8 8 8 9 10 11 11 10 10 12 14 15 13 13 14 16 17 19
0 0 0 0 0 0 0 1 2 3 5 8 10 12 14 16 16 16 16 14 11 9 7 7 7 8 7 7 7 7 6 7 7 7 7 8 10 11 10 10 12 14 15 14 13 14 15 16 17
0 0 0 0 0 0 1 4 6 6 8 12 14 12 11 13 14 15 15 14 12 8 6 5 6 6 7 6 6 6 6 7 6 6 6 7 9 10 10 11 12 13 14 14 14 14 14 14 15
0 0 0 0 0 0 2 7 10 10 11 15 15 12 11 13 14 13 13 12 10 8 6 5 4 5 6 6 6 6 6 6 6 5 5 6 8 9 10 10 10 10 11 12 13 14 14 15 15
0 0 0 0 0 0 3 7 10 11 12 15 16 14 14 14 12 11 9 8 7 7 6 5 2 2 4 6 7 7 7 7 7 6 5 5 7 8 9 9 9 8 8 9 11 13 14 14 14
0 0 0 0 0 0 2 5 7 9 11 15 16 15 13 11 8 7 7 6 6 6 5 3 1 1 2 5 7 8 8 7 7 6 4 4 6 7 7 7 7 6 5 6 8 10 11 11 11
0 0 0 0 0 1 3 4 6 8 11 14 14 12 10 7 4 4 5 5 6 5 3 2 1 1 1 3 7 9 8 7 6 5 4 4 5 6 6 6 6 5 4 4 5 7 8 8 8
0 0 0 0 1 2 4 4 5 7 10 12 12 10 7 4 2 1 2 3 4 3 1 1 1 1 1 3 6 7 6 5 4 4 3 4 4 4 4 5 5 5 3 3 4 4 5 5 5
0 0 0 1 2 3 4 3 4 7 11 12 12 9 6 3 1 0 1 2 2 1 0 0 0 0 1 2 3 4 4 3 3 3 3 3 2 2 3 4 4 3 1 1 2 3 3 3 4
0 0 0 2 3 3 2 1 2 6 10 12 11 9 6 4 2 1 1 1 1 0 0 0 0 0 0 0 1 1 2 3 3 3 3 2 1 1 2 2 2 1 0 0 1 1 2 3 4
0 0 0 1 2 2 1 0 1 4 8 10 10 9 7 6 4 2 1 1 0 0 0 0 0 0 0 0 0 0 1 1 3 4 3 2 1 0 1 1 1 0 0 0 0 1 2 3 4
0 0 0 0 1 1 0 0 1 3 5 7 8 8 7 7 6 5 3 2 1 0 0 0 0 0 0 0 0 0 0 1 3 4 3 2 1 0 0 0 0 0 0 0 0 1 2 3 3
0 0 0 0 0 0 0 0 0 1 2 4 7 7 7 7 7 6 5 4 2 1 0 0 0 0 0 0 0 0 0 1 2 2 2 1 1 0 0 0 0 0 0 0 0 0 1 1 2
0 0 0 0 0 0 0 0 0 0 0 2 5 7 7 7 8 7 6 4 2 1 0 0 0 0 0 0 0 0 0 0 1 1 0 0 0 0 0 1 1 1 0 0 0 0 0 0 1
0 0 0 0 0 0 0 0 0 0 0 1 4 6 6 8 8 7 6 5 2 0 0 0 0 0 0 0 0 0 0 0 0 0 0 0 0 0 0 1 1 1 0 0 0 0 0 0 0
0 0 0 0 0 0 0 0 0 0 0 1 3 4 4 5 6 6 6 5 3 1 0 0 0 0 0 0 0 0 0 0 0 0 0 0 0 0 0 0 1 1 0 0 0 0 0 0 0
0 0 0 0 0 0 0 0 0 0 0 1 2 3 3 2 4 5 6 5 3 1 0 0 0 0 0 0 0 0 0 0 0 0 1 0 0 0 0 0 0 0 0 0 0 0 0 0 0
0 0 0 0 0 0 0 0 0 0 0 1 2 3 2 1 2 4 4 3 2 1 0 0 0 0 0 0 0 0 0 0 0 0 0 0 0 0 0 0 0 0 0 0 0 0 0 0 0
0 0 0 0 0 0 0 0 0 0 0 1 2 3 2 1 1 2 2 1 1 0 0 0 0 0 0 0 0 0 0 0 0 0 0 0 0 0 0 0 0 0 0 0 0 0 0 0 0
0 0 0 0 0 0 0 0 0 0 0 1 2 3 2 1 0 1 1 0 0 0 0 0 0 0 0 0 0 0 0 0 0 0 0 0 0 0 0 0 0 0 0 0 0 0 0 0 0

GEFSSGP_con_probscp_228.txt.gz
Probability
0 0 0 1 0 0 0 0 0 0 0 0 0 0 0 0 0 0 0 1 3 6 9 13 16 17 14 12 10 9 8 7 4 4 6 8 9 11 12 11 10 10 11 12 11 11 10 9 7
0 0 0 1 0 0 0 0 1 1 0 0 0 0 0 0 0 1 1 2 3 6 9 13 17 18 17 14 13 12 11 9 6 5 6 7 8 10 12 12 11 11 11 11 12 12 12 11 10
0 0 0 0 0 0 0 1 2 2 1 0 0 0 0 1 1 2 3 4 4 6 10 15 19 21 21 18 16 15 15 13 10 8 8 7 8 10 12 13 13 13 11 11 12 12 13 14 14
0 0 0 0 0 0 1 2 2 2 1 0 0 0 1 2 3 3 5 5 4 5 9 16 21 23 23 21 19 18 17 17 15 13 11 11 10 10 11 13 14 15 14 13 13 13 14 15 16
0 0 0 0 0 0 1 2 1 1 0 0 0 1 2 3 4 4 4 4 4 5 8 15 21 23 23 23 22 21 19 17 17 16 14 13 13 11 10 12 14 16 16 16 16 17 17 16 17
0 0 0 0 0 1 2 2 1 0 0 0 0 1 2 5 7 6 5 5 6 7 10 14 17 19 21 22 22 21 18 15 15 15 13 12 12 11 10 12 14 16 15 14 14 16 18 18 18
0 0 0 0 0 1 2 3 2 1 0 0 0 0 2 7 11 10 8 8 9 10 12 13 12 12 16 19 21 21 18 15 14 13 11 9 9 9 9 10 12 13 13 12 11 12 14 17 18
0 1 1 1 0 1 2 3 2 1 0 0 1 2 5 10 13 13 12 12 13 14 15 13 9 7 10 15 18 19 19 17 15 13 10 7 7 7 7 9 11 12 13 13 12 11 12 14 15
0 1 1 1 0 1 1 1 1 0 0 1 2 4 8 12 13 14 14 14 15 15 15 14 10 8 9 12 15 15 16 17 15 12 8 6 5 5 6 8 10 12 12 13 13 12 12 11 12
1 1 1 0 0 0 0 0 0 0 0 2 3 5 7 10 11 13 13 13 15 16 14 13 12 11 11 14 16 15 14 14 11 7 5 4 4 5 5 8 10 11 11 11 11 12 11 11 11
1 1 1 0 0 0 0 0 0 1 1 2 3 4 6 8 10 13 13 14 16 16 14 11 11 12 14 16 18 17 15 13 9 5 3 4 5 6 6 7 9 10 11 11 12 13 12 11 11
2 1 0 0 0 0 0 0 0 1 2 3 3 5 7 10 14 16 17 17 17 16 13 10 9 11 15 17 18 17 15 13 9 6 6 7 7 8 9 9 9 10 11 12 14 14 13 12 12
2 1 0 0 0 0 0 0 0 1 2 4 5 8 12 15 19 21 20 18 17 15 12 10 9 12 14 17 18 17 14 11 8 8 9 10 10 10 11 12 12 11 11 11 12 12 12 13 13
3 2 1 0 0 0 1 1 1 2 3 5 8 12 16 19 20 21 22 21 19 16 13 11 11 12 13 14 17 16 13 10 9 9 10 11 12 12 12 13 13 12 11 11 11 11 12 13 13
3 2 1 0 0 0 1 2 3 4 6 8 11 15 19 21 19 19 21 21 20 17 14 11 11 11 11 12 13 13 12 12 11 11 11 11 13 12 11 11 13 14 14 13 13 12 12 12 12
3 2 0 0 0 0 1 2 4 6 9 12 14 16 20 21 18 16 17 19 19 16 14 11 10 10 10 11 11 12 13 13 13 12 12 12 12 13 12 12 15 16 16 15 14 12 11 10 10
3 2 0 0 0 0 2 3 4 5 9 12 13 14 17 19 17 14 14 14 14 14 14 13 12 11 11 11 11 12 15 14 12 11 11 12 13 13 13 14 15 15 15 14 12 10 9 8 9
2 1 1 1 0 1 3 5 5 5 6 8 10 11 12 14 14 12 10 10 11 13 14 14 14 13 13 12 11 13 15 14 11 9 9 10 11 13 13 13 14 13 12 12 9 8 7 7 7
1 1 2 2 1 3 5 5 5 5 4 6 9 11 9 9 10 9 7 7 10 14 16 15 15 15 14 13 12 13 14 13 10 8 7 7 8 10 11 12 13 11 11 11 10 7 6 5 5
2 2 3 3 2 3 5 5 4 4 3 4 8 10 8 8 8 7 6 7 11 16 17 15 14 15 14 13 13 13 13 12 9 7 6 5 6 7 9 10 11 10 10 10 10 8 6 4 4
3 2 3 3 2 2 3 4 3 3 2 3 6 8 8 9 10 9 9 10 12 15 16 15 14 13 13 13 12 11 11 9 8 7 7 6 5 5 6 6 9 10 10 8 8 7 5 3 2
2 2 2 2 2 2 2 2 2 2 2 2 4 7 8 10 12 12 12 12 11 12 14 14 14 12 12 12 12 10 8 6 6 7 8 8 6 4 4 5 8 11 9 7 5 4 3 3 3
2 1 1 1 2 2 2 2 1 1 2 2 4 6 9 10 12 13 12 10 9 10 13 14 12 10 9 9 10 8 5 4 5 7 8 7 6 5 4 5 8 9 8 6 4 2 2 3 4
1 0 0 1 1 1 1 1 2 2 3 2 2 5 8 11 13 12 11 9 9 10 12 11 9 6 6 6 6 6 4 2 4 6 6 6 6 6 5 6 8 8 6 5 4 3 3 4 4
0 0 0 1 1 0 0 1 3 3 2 1 1 3 7 11 14 13 12 11 10 9 9 8 6 4 3 3 3 3 2 2 3 3 4 5 5 6 5 6 7 7 5 4 4 3 3 4 4
0 0 0 0 0 0 0 1 2 1 1 0 1 3 6 11 15 15 14 11 9 8 7 6 4 2 1 1 1 1 1 1 2 2 3 4 5 5 5 5 4 4 4 4 4 3 3 3 3
0 0 0 0 0 0 0 1 1 0 0 0 2 4 6 9 13 16 15 11 8 7 6 6 4 2 1 1 0 0 0 1 1 0 1 4 5 5 5 4 3 3 3 3 3 2 3 3 3
0 0 0 0 0 0 0 1 1 1 1 0 1 4 6 8 11 15 14 11 8 7 6 5 4 3 3 2 1 0 0 0 0 0 1 3 4 4 4 3 3 3 3 3 2 2 3 3 3
0 0 0 0 0 0 0 0 1 1 1 0 1 3 5 8 11 13 13 10 7 5 4 3 3 3 4 3 2 0 0 0 0 1 2 3 3 3 3 3 3 3 3 3 2 1 2 3 3
0 0 0 0 0 0 0 0 0 1 1 0 1 3 6 9 11 12 11 9 6 4 4 3 3 3 4 3 1 0 0 0 0 1 2 3 3 2 3 3 3 3 3 3 2 1 1 3 3

GEFSSGP_con_probscp_234.txt.gz
Probability
0 0 1 3 3 2 1 0 0 0 0 0 0 0 1 2 2 3 4 8 13 15 16 16 17 16 14 10 5 1 1 3 6 6 4 1 2 3 4 4 2 2 4 6 5 5 4 4 4
0 1 2 3 2 1 0 0 0 0 0 0 0 1 2 2 2 2 4 8 13 16 17 17 17 17 15 11 8 4 3 4 7 8 6 3 3 3 4 5 4 4 5 5 5 5 4 4 4
0 1 2 2 1 0 0 1 1 1 1 0 1 3 4 2 2 3 5 9 13 18 20 20 21 20 16 13 11 9 7 6 8 11 10 7 5 5 5 6 6 6 7 5 5 4 4 5 6
0 1 1 1 0 0 0 1 2 2 2 1 3 6 6 4 4 5 6 8 13 22 26 26 26 25 20 16 15 14 12 9 9 11 11 9 8 7 6 6 6 7 7 7 6 5 5 6 7
0 0 0 0 0 0 0 0 1 1 2 2 5 8 8 7 7 6 5 6 13 24 29 29 31 29 25 21 20 18 16 13 13 13 11 9 8 7 6 6 7 6 5 6 8 8 6 6 7
0 0 0 0 0 0 0 0 0 1 2 2 5 9 10 10 9 7 6 7 13 23 27 28 30 29 25 23 21 19 18 17 17 15 13 10 8 7 6 7 7 6 6 6 7 8 8 8 9
0 0 0 0 0 0 0 0 0 1 1 2 5 11 13 13 13 10 8 8 12 20 23 24 26 26 24 22 21 20 19 19 18 16 13 10 8 7 5 4 5 6 7 7 5 6 8 10 11
0 0 0 0 0 0 0 0 1 1 2 4 8 13 15 15 13 11 10 10 12 18 21 20 21 22 22 23 23 22 21 20 19 17 14 10 7 6 4 3 4 5 7 7 6 5 7 9 10
0 0 0 0 0 0 0 0 1 2 3 6 10 12 13 12 10 10 13 14 15 18 19 18 18 19 19 21 22 21 19 19 17 15 13 10 6 5 5 5 7 9 9 9 8 7 8 9 8
0 0 0 0 0 0 0 1 1 2 3 6 8 10 10 10 9 12 16 17 18 18 18 17 17 16 16 17 18 18 18 16 12 10 11 10 7 6 7 9 14 14 12 10 9 9 9 9 9
0 0 0 0 0 0 1 2 2 3 4 6 8 11 12 12 13 15 18 19 18 18 17 17 17 17 17 18 18 18 19 18 12 10 11 11 10 11 11 13 16 16 12 10 11 11 10 9 11
0 0 0 0 0 1 1 3 4 6 7 7 10 15 16 16 17 19 22 22 20 19 17 17 18 20 21 21 20 21 22 22 17 15 15 14 14 15 15 16 16 15 12 12 14 14 13 13 15
0 0 0 0 0 1 2 3 6 8 9 9 11 16 19 19 20 22 24 25 23 20 19 19 20 22 23 22 21 22 24 23 21 20 19 18 17 17 16 17 18 15 13 14 16 17 16 17 17
0 0 0 0 0 1 3 4 6 9 10 10 12 15 18 19 20 23 25 26 24 23 22 22 23 24 24 21 19 21 22 22 22 23 22 21 20 19 19 21 20 16 13 14 16 17 19 18 17
0 0 0 0 0 1 3 5 7 10 11 12 13 14 17 20 21 22 23 24 25 26 27 25 24 26 26 23 20 19 19 21 23 24 23 23 23 23 24 25 21 16 13 14 16 17 18 17 16
0 0 0 0 0 1 3 7 10 12 13 16 17 16 18 23 24 23 21 22 25 28 30 28 25 26 29 28 23 20 22 24 25 26 25 26 26 25 25 24 21 16 14 14 15 16 16 15 14
0 0 0 0 0 1 4 8 11 12 13 17 20 21 23 26 28 27 24 22 25 29 30 29 27 28 31 32 28 26 28 30 30 29 28 28 26 23 22 21 19 16 14 14 15 15 14 13 12
0 0 0 0 0 1 5 9 12 12 10 14 20 23 25 29 31 31 28 25 25 29 30 29 26 27 31 32 31 30 31 32 31 30 28 26 22 19 19 18 16 16 16 17 17 16 14 12 12
0 0 0 0 1 3 6 11 15 14 10 12 18 21 25 29 32 32 29 25 23 26 29 27 24 24 27 30 30 30 29 28 27 26 22 19 15 13 14 14 14 16 17 18 19 18 14 11 10
0 0 0 0 1 3 6 10 14 14 11 13 17 21 24 28 31 30 26 21 20 23 26 26 25 25 27 28 28 28 27 24 22 19 15 12 10 9 10 11 12 12 15 17 18 18 13 9 7
0 0 0 1 2 3 4 7 11 12 13 15 19 21 23 26 28 28 24 20 19 21 23 26 29 31 31 29 27 25 23 22 20 16 11 8 7 7 8 8 8 9 11 14 16 15 11 8 6
0 0 0 2 3 3 3 4 8 11 14 17 19 19 19 21 25 27 25 22 20 20 23 29 33 35 34 30 25 20 19 19 18 15 10 7 6 5 5 6 7 8 8 10 12 12 11 9 8
0 0 0 1 3 3 2 4 8 12 14 15 14 13 13 16 22 27 27 25 22 21 24 30 34 34 31 27 24 22 21 19 17 13 9 7 6 5 4 5 6 6 6 7 10 11 11 10 9
0 0 0 0 1 1 1 4 10 13 12 12 10 8 10 14 19 23 25 25 23 22 23 26 28 28 25 23 23 24 25 22 17 12 7 5 4 4 3 3 4 4 5 6 8 10 10 8 7
0 0 0 0 0 0 1 5 11 12 10 9 8 8 10 13 16 19 21 22 23 24 23 20 19 20 20 20 21 24 24 21 16 11 6 4 4 3 2 2 2 2 3 5 6 7 7 5 4
0 0 0 0 0 0 1 5 9 8 7 7 7 7 9 11 14 17 20 22 25 26 23 18 15 16 18 19 19 21 20 17 14 10 7 5 4 4 2 1 1 1 2 3 5 5 4 3 3
0 0 0 0 0 0 2 5 6 5 4 5 6 7 8 10 12 16 20 24 28 27 23 18 16 16 15 15 15 16 15 13 11 9 7 6 5 4 2 1 0 1 2 2 3 4 3 3 3
0 0 0 0 0 0 1 5 7 6 5 5 6 8 10 10 11 14 20 26 29 28 24 21 19 17 13 10 10 10 10 10 9 6 5 5 5 3 1 0 0 1 1 1 2 3 3 3 3
0 0 0 0 0 0 1 5 8 9 7 7 8 10 12 13 13 15 20 26 28 27 24 22 20 17 12 9 8 7 7 7 5 4 3 3 3 2 1 0 0 0 0 0 1 1 2 3 3
0 0 0 0 0 1 2 5 10 11 10 9 11 12 13 15 16 18 21 26 28 26 23 21 20 16 12 10 7 6 5 5 3 2 2 2 1 1 0 0 0 0 0 0 0 0 1 3 3

GEFSSGP_con_probscp_240.txt.gz
Probability
0 0 0 0 0 0 0 0 0 0 0 0 2 4 3 1 0 1 0 0 2 3 4 6 9 12 12 11 12 13 12 9 8 7 8 9 10 8 6 5 6 6 5 4 4 6 6 6 7
0 0 0 0 0 0 0 0 0 0 0 1 3 5 3 1 1 2 1 0 2 3 4 7 13 16 16 14 14 13 12 10 9 8 7 8 9 9 7 5 5 5 5 4 4 5 6 6 6
0 0 0 0 0 0 0 0 0 0 1 3 6 6 3 1 2 3 2 2 2 3 4 9 17 20 20 18 16 15 14 12 11 8 6 6 7 8 7 6 5 5 4 4 4 5 6 5 5
0 0 0 0 0 0 0 0 0 0 1 5 8 7 4 2 3 5 5 5 4 4 5 10 17 21 21 21 19 17 17 16 14 9 6 6 7 7 7 8 7 5 5 6 5 5 6 5 5
0 0 0 0 0 0 0 0 0 1 2 5 8 8 5 4 5 6 8 8 7 5 6 10 17 21 22 22 21 21 21 19 16 12 9 8 9 8 7 7 7 6 7 8 7 7 7 8 7
0 0 0 0 0 0 0 0 1 3 4 5 7 7 6 4 5 7 9 10 9 9 9 11 16 21 22 23 22 22 22 19 14 12 11 10 10 8 7 7 7 8 8 9 9 8 8 10 10
0 0 0 0 0 0 0 0 1 4 5 5 6 7 6 5 5 6 10 12 12 12 13 14 16 19 21 22 21 20 18 16 14 12 11 9 7 5 6 7 7 8 10 10 9 7 7 9 10
0 0 0 0 0 0 0 0 1 4 5 5 6 7 8 8 8 9 13 15 14 14 15 16 16 18 18 19 19 17 14 13 14 14 13 10 6 3 3 5 7 9 9 9 9 8 8 8 9
0 0 0 0 0 0 0 0 1 3 5 6 7 9 10 11 13 15 16 16 15 14 14 15 17 17 17 17 17 15 12 11 13 15 15 11 5 2 1 3 6 8 9 9 10 11 9 7 7
0 0 0 0 0 0 1 1 1 2 4 7 10 12 13 15 18 19 18 15 14 13 13 14 17 18 17 16 15 13 11 9 11 13 13 9 5 2 2 3 4 6 8 10 11 10 9 8 7
0 0 0 0 0 0 2 3 2 1 3 9 14 17 17 17 19 20 18 14 12 11 11 12 16 18 17 16 14 13 11 9 9 11 10 7 4 3 3 3 3 3 5 7 7 8 8 8 7
0 0 0 0 1 2 5 5 4 3 7 14 20 21 19 18 19 19 17 14 13 11 10 10 13 16 16 15 14 13 11 9 8 8 7 5 4 3 3 3 3 3 3 4 4 5 6 6 5
0 0 0 1 2 4 7 7 6 7 12 18 22 22 20 18 17 17 15 14 13 11 8 7 8 11 12 12 12 12 12 11 8 6 5 4 3 3 3 3 3 3 3 3 4 5 5 4 3
0 0 0 1 3 5 7 7 6 9 14 18 20 22 21 18 15 15 14 12 11 9 6 4 4 5 8 10 11 11 13 13 10 7 6 4 3 3 3 3 3 3 3 3 4 5 5 4 3
0 0 0 1 3 5 6 6 6 10 15 18 19 21 20 16 14 14 13 12 11 9 6 3 2 3 6 10 11 12 13 14 11 9 7 5 4 3 3 3 3 3 3 3 3 4 4 4 3
0 0 0 1 3 4 5 6 8 11 16 19 21 21 19 16 15 15 14 13 12 9 6 3 2 2 5 9 10 10 11 12 11 8 6 5 4 3 3 3 3 3 3 3 3 4 4 4 3
0 0 0 1 2 3 4 5 7 11 15 19 20 20 18 17 16 15 15 13 11 7 4 4 3 4 5 7 7 7 8 8 8 6 4 3 3 3 3 3 3 3 3 3 3 3 4 3 3
0 0 0 1 2 4 4 5 6 9 12 15 16 16 17 17 15 14 13 13 10 6 4 5 5 5 6 6 6 6 6 6 5 4 3 2 2 2 2 2 3 3 3 3 3 3 3 3 3
0 0 0 0 2 5 5 5 5 8 9 11 12 12 14 15 12 11 12 12 9 6 6 7 7 7 6 5 5 6 6 5 5 5 4 3 3 2 1 1 2 3 3 3 3 3 3 3 3
0 0 0 1 3 5 5 3 4 7 9 10 11 10 11 12 11 10 11 11 9 7 6 8 8 8 6 4 4 6 6 6 7 7 6 4 3 2 1 1 1 1 2 3 3 3 3 3 3
0 0 0 1 3 4 2 1 3 6 8 10 11 10 11 11 10 10 12 12 11 9 7 7 7 7 6 4 3 4 5 7 8 8 6 4 3 3 3 2 1 0 1 1 2 3 3 2 3
0 0 0 1 2 2 1 0 2 5 8 10 11 10 10 10 9 10 12 13 13 11 8 5 4 5 4 3 2 3 5 6 7 7 5 3 3 3 3 3 2 1 0 0 1 1 2 3 3
0 0 0 0 1 1 0 0 1 4 7 9 9 8 7 7 8 10 11 13 13 10 6 4 3 3 3 3 2 3 3 4 5 5 4 3 3 3 3 3 2 1 0 0 0 0 1 2 2
0 0 0 0 0 0 0 0 1 2 5 8 8 7 6 5 7 8 10 11 11 8 5 4 4 3 3 3 3 2 1 1 3 4 3 3 3 3 3 2 1 0 0 0 0 0 0 1 1
0 0 0 0 0 0 0 0 1 2 4 6 6 6 5 5 6 8 9 10 11 9 7 6 6 4 4 4 2 1 0 1 2 3 3 2 2 2 2 1 0 0 0 0 0 0 0 0 0
0 0 0 0 0 0 0 1 1 2 4 4 4 4 4 5 8 10 11 11 11 10 9 9 8 6 4 3 1 0 0 0 1 2 2 1 0 1 1 0 0 0 0 0 0 0 0 0 0
0 0 0 0 0 0 0 1 1 3 3 3 3 3 3 5 9 12 13 13 11 10 10 11 9 6 2 1 0 0 0 0 1 1 1 0 0 0 0 0 0 0 0 0 0 0 0 0 0
0 0 0 0 0 0 0 0 2 3 3 3 3 3 4 5 9 11 13 13 11 9 10 11 8 4 1 0 0 0 0 0 0 0 0 0 0 0 0 0 0 0 0 0 0 0 0 0 0
0 0 0 0 0 0 0 0 2 3 3 3 3 3 4 6 8 9 10 11 10 9 9 9 6 3 1 0 0 0 0 0 0 0 0 0 0 0 0 0 0 0 0 0 0 0 0 0 0
0 0 0 0 0 0 0 1 2 3 3 3 3 2 3 5 7 8 8 8 9 9 8 7 5 3 1 0 0 0 0 0 0 0 0 0 0 0 0 0 0 0 0 0 0 0 0 0 0

GEFSSGP_con_probscp_246.txt.gz
Probability
0 0 0 0 0 0 0 0 0 0 0 0 0 0 0 0 0 0 0 0 2 4 6 7 7 7 9 11 12 15 19 22 24 23 20 17 14 10 7 5 1 0 1 1 1 1 1 1 0
0 0 0 0 0 0 0 0 0 0 0 0 0 0 0 0 0 0 0 1 3 6 8 8 8 9 11 13 12 13 16 19 20 21 20 19 16 12 9 6 3 1 2 3 2 1 2 2 1
0 0 0 0 0 0 0 0 0 0 1 0 0 1 1 0 0 0 1 3 5 7 9 10 10 12 15 16 14 14 16 18 19 20 21 20 17 13 10 8 5 3 4 4 3 2 3 2 1
0 0 0 0 0 0 0 0 0 0 0 0 1 2 2 1 0 1 4 6 8 9 10 12 14 16 19 20 18 18 20 21 20 20 18 16 13 10 9 7 6 6 6 5 4 3 3 3 2
0 0 0 0 0 0 0 0 0 0 1 1 2 3 3 2 2 4 6 8 9 10 11 13 16 19 21 22 23 23 23 21 18 15 14 11 9 6 5 5 6 7 6 5 5 4 3 3 3
0 0 0 0 0 0 0 0 0 1 2 3 3 3 3 3 5 7 9 9 10 12 13 14 16 18 20 22 23 23 21 17 13 11 11 11 9 6 4 4 5 7 6 5 5 5 5 5 5
0 0 0 0 0 0 0 0 0 2 3 3 3 3 3 5 8 12 13 13 13 14 14 14 15 17 20 21 21 20 18 16 13 11 11 12 11 9 5 4 5 7 7 7 6 6 7 7 7
0 0 0 0 0 0 0 0 0 1 2 2 3 4 4 7 12 16 16 15 14 13 13 13 13 15 17 18 17 16 17 15 12 10 10 11 10 8 4 3 5 7 8 8 7 7 7 7 8
0 0 0 0 0 0 0 0 0 0 1 3 5 6 8 12 15 17 16 15 13 12 10 10 11 12 13 13 13 13 14 12 9 8 10 9 7 5 3 2 3 5 7 8 7 6 7 8 8
0 0 0 0 0 0 0 0 0 0 2 4 6 9 13 18 19 18 15 13 12 11 9 10 10 11 11 11 10 10 11 10 8 9 10 10 7 4 2 1 1 2 4 5 4 4 6 7 7
0 0 0 0 1 1 1 0 0 0 1 4 7 11 16 19 20 18 14 12 11 10 9 10 11 12 12 11 11 10 10 10 9 10 12 11 9 5 2 0 0 0 2 3 3 3 5 6 6
0 0 0 0 1 3 3 2 2 1 2 4 9 13 16 17 17 16 13 10 10 9 9 9 11 11 11 11 11 11 11 10 10 10 12 12 9 5 2 0 0 1 1 3 4 5 6 7 7
0 0 0 0 2 5 6 6 6 4 4 6 11 14 15 13 12 11 10 8 7 7 7 7 7 9 10 10 10 11 12 10 9 9 11 12 10 6 3 1 1 2 3 4 5 7 8 8 8
0 0 0 1 3 5 7 8 8 5 4 8 13 14 13 10 7 6 5 5 4 4 5 4 4 6 7 7 7 9 10 9 8 9 11 11 10 8 5 3 3 3 3 4 5 6 6 7 7
0 0 0 0 1 2 4 5 5 4 5 10 13 13 11 8 6 4 4 3 3 3 3 3 3 3 4 4 4 5 7 8 8 9 10 9 8 7 5 3 3 3 3 3 3 4 4 4 5
0 0 0 0 0 0 1 2 2 4 7 11 12 12 10 7 6 5 4 3 3 1 2 3 3 3 2 2 1 3 5 6 8 8 8 7 6 5 4 3 2 1 1 1 1 3 3 3 4
0 0 0 1 1 1 1 1 2 4 8 10 12 12 10 8 7 7 6 4 3 2 2 4 4 3 3 2 1 2 3 4 5 6 5 5 5 4 3 2 1 0 0 0 1 2 3 3 3
0 0 1 2 2 2 1 1 3 4 7 9 10 10 8 8 8 9 8 6 5 4 4 3 3 3 3 3 2 2 2 2 3 3 3 4 4 3 3 3 1 0 0 1 1 1 1 2 2
0 0 1 2 3 2 1 1 2 4 6 7 8 8 7 8 9 11 10 9 7 6 3 2 1 1 2 3 3 2 1 1 1 2 2 3 3 3 3 3 2 1 1 1 0 0 0 1 1
0 0 1 2 3 1 1 0 1 3 5 5 5 6 7 8 11 12 12 11 11 7 2 1 1 1 2 2 2 1 0 0 1 2 3 3 3 3 3 3 3 3 2 2 1 0 0 0 1
0 0 1 2 2 1 0 0 0 2 3 4 3 5 7 9 11 12 12 13 13 9 3 1 2 3 2 1 0 0 0 0 1 2 3 3 3 3 3 3 3 3 3 3 1 0 0 0 1
0 0 1 2 1 0 0 0 0 1 2 3 4 5 6 8 9 10 11 12 13 9 4 2 3 3 2 1 0 0 0 0 0 1 2 3 3 3 3 3 3 3 3 3 2 1 0 0 1
0 0 1 1 1 0 0 0 0 0 2 3 5 5 6 6 7 9 10 11 11 7 3 2 3 3 2 1 0 0 0 0 0 0 1 2 3 3 3 3 3 3 3 3 2 1 0 0 0
0 0 0 0 0 0 0 0 0 1 2 3 4 6 6 6 7 7 8 9 8 5 3 3 3 3 3 1 0 0 0 0 0 0 0 1 2 3 3 3 3 3 3 3 3 1 0 0 0
0 0 0 0 0 0 0 0 0 1 2 3 3 5 6 6 6 5 5 6 5 4 3 3 3 3 3 2 1 0 0 0 0 0 0 0 1 3 3 3 3 3 3 3 3 2 1 0 0
0 0 0 0 0 0 0 0 0 0 1 2 2 4 5 5 4 4 4 3 3 3 3 3 3 3 3 3 2 0 0 0 0 0 0 0 1 2 3 3 3 3 3 3 3 2 1 0 0
0 0 0 0 0 0 0 0 0 0 0 1 2 3 4 4 4 3 3 2 2 3 3 3 3 3 3 2 1 0 0 0 0 0 0 0 1 2 3 3 3 3 3 3 1 1 0 0 0
0 0 0 0 0 0 0 0 0 0 0 1 3 3 4 4 4 3 2 1 1 2 3 3 3 3 2 2 2 1 0 0 0 0 0 0 1 2 3 3 3 3 3 2 1 0 0 0 0
0 0 0 0 0 0 0 0 0 0 0 1 2 2 3 4 4 3 2 0 1 2 3 3 3 3 2 2 2 2 1 0 0 0 0 0 0 1 2 2 2 2 2 2 1 0 0 0 0
0 0 0 0 0 0 0 0 1 1 1 0 1 1 1 2 2 3 2 1 1 2 3 3 3 3 2 2 3 2 1 0 0 0 0 0 0 0 1 1 1 1 1 1 0 0 0 0 0

GEFSSGP_con_probscp_252.txt.gz
Probability
0 0 0 1 1 1 0 0 0 0 0 0 0 0 0 0 0 0 0 0 0 1 4 8 12 12 11 11 11 11 12 11 10 11 12 10 6 5 3 2 4 5 4 4 3 1 0 0 0
0 0 0 1 1 0 0 0 0 0 0 0 0 0 1 1 1 1 0 0 0 1 5 11 15 15 14 13 12 13 14 13 11 11 12 10 7 5 4 4 4 4 3 4 3 2 1 1 0
0 0 0 0 0 0 0 0 0 0 0 0 0 0 2 4 4 2 1 0 0 2 7 15 19 19 17 15 14 15 15 14 13 11 10 9 8 6 6 6 5 4 3 3 3 3 2 2 1
0 0 0 0 0 0 0 0 0 0 0 0 0 2 5 6 5 3 2 1 0 3 9 16 21 22 19 17 17 17 16 13 12 10 8 7 6 5 5 5 5 4 4 3 3 3 3 3 3
0 0 0 0 0 0 0 0 0 0 0 0 1 4 6 6 5 4 3 2 2 5 10 17 21 23 22 21 19 18 15 12 10 8 7 5 4 3 2 2 3 3 4 4 4 4 3 3 4
0 0 0 0 0 0 0 0 0 0 0 0 1 4 6 6 6 6 6 5 5 7 12 17 20 22 22 23 22 19 15 11 9 7 6 4 2 1 1 1 2 3 3 3 3 3 3 2 3
0 0 0 0 0 0 0 0 1 1 0 0 1 3 6 7 7 8 7 7 7 9 12 15 16 17 18 20 21 19 16 12 9 7 6 5 3 2 1 3 4 3 3 3 3 3 3 2 2
0 0 0 0 0 0 0 1 2 2 1 1 1 3 6 8 9 8 8 8 8 8 10 10 11 11 11 13 17 18 16 13 9 8 7 7 6 3 2 3 4 3 2 3 3 3 3 3 3
0 0 0 0 0 0 0 1 2 3 3 2 3 3 6 9 11 11 11 11 10 8 7 6 6 7 8 10 15 17 15 11 9 8 8 7 5 4 3 3 3 2 1 1 3 3 3 3 3
0 0 0 0 0 0 0 1 2 3 3 3 3 4 7 10 13 15 14 13 12 9 6 5 6 7 9 12 15 16 12 10 9 9 7 6 5 4 3 3 3 3 1 1 2 2 3 3 3
0 0 0 0 0 0 0 1 2 3 3 2 3 5 9 11 14 15 14 13 12 10 8 6 6 8 10 13 15 13 11 9 9 7 6 5 6 6 5 4 4 4 2 1 1 1 2 3 4
0 0 0 0 0 0 1 2 2 3 3 2 3 6 9 11 13 13 12 12 13 12 9 7 6 7 8 11 12 10 9 9 9 8 6 6 7 7 6 6 7 7 6 3 2 3 3 4 5
0 0 0 0 0 1 2 2 2 4 5 4 5 7 8 11 12 11 10 11 13 12 10 8 7 7 7 8 8 8 7 8 10 9 8 8 9 8 8 9 11 12 11 8 6 5 5 4 4
0 0 0 0 0 1 2 2 2 4 5 5 5 6 7 9 10 11 12 13 13 12 11 11 10 9 8 7 6 6 6 7 9 9 8 9 10 10 11 13 13 15 15 12 9 8 8 6 5
0 0 0 0 0 0 1 1 1 3 5 4 4 5 6 5 6 10 14 16 15 14 14 13 11 11 10 8 7 6 6 6 7 7 7 8 10 11 13 15 15 16 15 12 11 11 12 11 8
0 0 0 0 0 0 0 0 1 3 5 4 3 4 4 3 3 7 12 15 16 17 17 15 13 10 9 8 6 4 4 5 6 6 6 7 8 10 11 13 14 14 12 11 11 13 14 12 11
0 0 0 0 0 0 0 1 2 4 5 4 3 3 3 3 3 6 10 14 17 19 20 19 15 10 8 6 4 3 3 4 5 5 5 6 6 7 8 10 11 10 9 9 9 11 12 11 10
0 0 0 0 0 0 0 1 2 3 4 4 4 3 3 3 5 7 11 15 19 21 21 19 15 12 10 6 4 3 2 2 3 3 4 6 6 5 6 6 7 7 8 8 8 9 9 10 10
0 0 0 0 0 0 0 1 1 2 3 5 5 4 4 6 7 10 13 15 18 21 20 17 15 15 13 9 6 4 3 3 2 2 2 5 7 6 5 4 4 6 7 6 6 6 7 9 9
0 0 0 0 0 0 0 0 0 1 2 4 6 5 6 7 10 13 16 18 17 17 17 16 16 15 14 11 8 6 5 5 3 2 2 3 4 5 4 4 5 5 6 6 5 5 6 6 7
0 0 0 0 0 0 0 0 0 1 2 3 4 6 7 8 10 15 19 20 17 16 16 17 17 17 15 12 10 8 8 7 4 3 2 1 1 2 3 4 5 6 6 6 6 5 5 4 5
0 0 0 0 0 0 0 0 0 1 2 3 4 5 6 7 9 12 16 18 17 16 15 15 15 16 15 13 10 9 9 8 6 4 2 0 0 1 2 3 4 5 6 6 6 6 5 4 2
0 0 0 0 0 0 0 0 0 0 1 3 5 6 6 6 7 8 12 15 15 15 13 12 13 14 14 12 9 8 8 7 6 5 3 1 0 0 1 1 2 4 6 6 6 6 6 5 3
0 0 0 0 0 0 0 0 0 1 2 3 6 8 7 7 7 9 13 15 14 13 12 12 13 14 11 8 7 8 8 7 6 5 2 1 0 0 0 0 1 3 5 6 6 6 6 6 5
0 0 0 0 0 0 0 0 1 2 3 3 5 8 9 9 10 12 15 16 14 13 13 14 14 13 10 7 6 7 8 8 7 4 2 1 0 1 2 1 1 3 5 6 6 6 6 5 5
0 0 0 0 0 0 0 0 2 3 3 3 3 6 9 9 9 11 14 14 12 12 14 15 13 11 9 7 6 6 7 7 6 4 3 2 1 1 2 2 3 4 5 6 6 6 5 4 4
0 0 0 0 0 0 0 1 2 3 3 2 2 5 8 8 7 8 9 10 9 9 12 12 11 10 9 7 6 6 5 5 4 3 3 2 1 1 1 2 4 5 6 6 6 5 4 3 3
0 0 0 0 0 0 0 1 2 3 3 2 3 5 7 8 7 6 6 6 6 7 8 8 8 8 8 7 6 5 4 3 3 3 3 3 1 1 0 1 3 5 6 6 6 4 3 3 3
0 0 1 1 1 0 0 1 2 3 3 3 5 7 7 8 7 7 6 6 6 7 7 7 6 7 7 7 6 5 3 3 3 3 4 4 3 2 1 1 2 3 4 5 5 4 3 3 3
0 0 1 2 1 0 0 1 3 4 4 5 7 7 7 7 7 7 6 6 7 9 9 8 6 7 7 7 7 5 3 3 3 4 5 5 4 4 2 1 2 2 3 4 4 4 3 3 3

GEFSSGP_con_probscp_258.txt.gz
Probability
0 0 0 2 4 3 1 0 1 2 1 0 1 3 5 7 6 5 2 4 11 14 14 16 20 22 21 18 13 9 6 4 4 4 3 2 1 2 4 6 6 5 4 3 3 3 3 3 4
0 0 1 3 3 2 0 0 1 1 1 1 2 3 5 6 6 5 4 5 11 15 16 17 21 23 22 20 17 12 8 5 5 6 5 4 2 2 4 5 5 5 4 4 3 3 2 3 4
0 1 2 3 2 0 0 0 0 0 0 1 2 4 4 3 3 4 4 7 13 18 20 21 23 25 23 21 18 14 10 7 6 6 6 5 2 2 4 4 5 5 6 5 4 2 1 2 3
0 1 2 2 1 0 0 0 0 1 1 2 3 5 4 2 2 3 5 9 15 20 22 22 23 25 23 21 18 15 12 9 8 7 6 4 2 2 3 3 4 6 6 6 4 2 1 2 3
0 1 1 1 0 0 0 0 0 1 2 3 4 6 6 4 4 5 8 12 16 20 22 21 22 23 23 23 21 19 16 12 10 9 6 4 3 3 2 2 3 6 7 6 3 2 2 4 6
0 0 0 0 0 0 0 0 0 1 2 3 5 7 8 6 5 7 10 14 16 17 19 19 19 19 22 24 25 22 18 15 12 11 9 6 5 4 3 3 3 5 6 4 2 2 4 6 7
0 0 0 0 0 0 0 0 1 2 3 4 5 8 9 8 6 6 9 13 14 13 15 16 16 16 19 22 24 22 19 16 13 11 10 8 6 5 4 3 2 2 2 2 1 2 2 4 6
0 0 0 0 0 0 0 1 1 3 3 3 6 11 14 10 6 7 10 11 10 9 11 14 14 15 17 19 20 20 19 17 13 11 10 9 6 5 3 2 1 0 0 1 2 2 1 2 4
0 0 0 0 0 0 1 2 3 3 3 5 11 17 18 11 6 8 10 10 8 7 9 12 13 15 17 17 18 19 19 16 12 10 9 8 6 4 2 3 3 3 2 2 3 3 1 1 3
0 0 0 0 0 1 2 3 3 2 3 7 14 20 18 10 6 8 10 11 10 7 8 10 12 14 15 15 17 18 16 14 10 8 8 7 5 3 3 5 8 7 5 4 5 4 2 1 2
0 0 0 0 0 1 2 3 2 2 3 7 13 18 16 12 10 10 12 14 14 11 9 9 11 13 13 15 17 17 14 12 10 9 10 9 7 6 6 8 10 10 7 6 7 5 2 1 2
0 0 0 0 0 1 2 2 2 2 3 6 13 16 15 14 13 12 14 17 18 17 14 11 13 15 16 16 17 16 14 12 12 13 13 12 11 10 10 12 13 12 10 10 9 7 4 2 2
0 0 0 0 0 1 1 1 2 3 3 7 12 15 14 13 13 14 17 20 23 23 19 16 17 21 22 20 18 16 14 13 13 15 14 14 14 13 14 15 16 15 14 14 13 11 7 5 5
0 0 0 0 0 1 1 2 3 4 5 8 13 16 15 14 14 16 21 26 28 29 26 22 23 26 25 21 18 15 14 13 12 12 11 11 13 14 15 16 17 16 15 14 14 12 10 8 8
0 0 0 0 0 0 1 2 4 6 8 10 14 18 21 20 17 18 25 29 31 34 33 29 27 28 25 20 17 15 13 11 9 8 8 10 12 14 13 14 16 16 13 11 11 10 10 8 8
0 0 0 0 0 0 1 3 5 7 9 9 12 20 26 26 20 18 24 29 34 38 38 34 28 27 25 20 17 14 12 10 9 8 8 10 12 11 11 12 13 13 11 8 7 7 8 7 6
0 0 0 0 0 0 1 5 7 8 7 8 11 18 26 27 22 19 22 29 36 42 41 37 32 29 26 22 18 14 12 11 11 11 12 13 12 10 10 10 10 10 9 7 5 4 5 5 5
0 0 0 0 0 0 2 5 7 7 7 8 10 14 20 22 22 22 25 29 36 42 42 39 36 32 28 23 19 17 14 12 13 14 15 15 13 11 10 10 9 9 8 7 5 4 3 4 5
0 0 0 0 0 0 2 4 5 7 9 10 12 15 17 19 22 28 29 30 35 40 41 39 38 35 30 24 21 20 17 14 15 15 16 17 15 12 10 10 10 8 7 6 5 4 4 3 4
0 0 0 0 0 1 3 4 5 8 11 13 15 17 20 21 26 33 34 32 34 37 39 39 38 36 31 27 24 22 19 17 15 15 17 17 16 14 12 11 10 7 6 6 5 5 5 4 3
0 0 0 0 1 2 4 5 7 10 13 14 14 17 21 25 31 35 35 34 34 34 36 38 38 37 32 29 27 24 21 18 15 15 16 16 15 15 14 12 10 7 5 6 5 5 5 4 3
0 0 0 0 2 3 3 4 8 12 13 12 11 15 21 27 32 33 34 34 33 32 33 36 38 37 33 29 28 25 22 19 17 16 15 14 12 12 12 10 8 5 5 5 5 4 4 3 3
0 0 0 0 1 1 1 2 6 11 12 11 11 15 22 27 29 30 32 33 32 30 32 35 37 35 31 28 27 26 23 21 19 18 16 13 9 8 8 8 7 6 4 3 4 4 4 4 4
0 0 1 0 0 0 0 2 5 8 11 14 14 15 21 25 25 27 29 31 31 31 33 36 36 34 30 26 26 27 26 22 19 18 16 11 7 5 6 7 8 7 4 2 3 5 5 4 4
0 0 0 0 0 0 0 2 6 9 11 15 16 15 18 22 23 25 27 28 30 32 33 36 37 35 30 26 24 26 26 22 19 18 14 9 5 6 8 10 10 8 3 2 3 5 5 4 4
0 0 0 0 0 0 0 3 8 11 13 17 18 17 18 21 23 24 25 26 28 30 31 34 35 34 29 25 23 23 23 20 18 18 14 9 6 8 11 13 11 8 3 2 3 5 5 5 5
0 0 0 1 1 0 1 5 10 13 15 18 19 18 18 20 22 24 24 23 25 28 30 31 32 31 26 23 21 21 21 19 18 18 15 11 8 8 11 12 10 8 5 3 3 5 7 7 7
0 0 1 2 2 1 1 4 9 13 15 17 19 17 16 17 18 19 19 20 22 27 29 28 26 25 23 20 19 20 19 17 16 16 14 11 10 10 10 10 9 7 6 5 4 4 6 8 9
0 0 1 3 2 1 1 2 5 11 16 16 16 15 14 13 13 13 14 15 18 22 23 19 18 18 18 18 18 18 16 14 13 13 12 11 11 11 10 8 7 6 5 4 3 2 4 6 6
0 0 1 3 2 0 1 2 5 11 17 17 13 12 12 11 11 11 12 13 14 16 16 13 11 13 15 16 16 16 15 13 13 12 11 11 12 11 9 7 7 6 5 3 1 1 3 4 4